Regional Weather Roundup
Issued by NWS

Home | Current Version | Previous Version | Graphics & Text | Print | Product List | Glossary On
Versions: 1 2 3 4 5 6 7 8 9 10 11 12 13 14 15 16 17 18 19 20 21 22 23 24 25 26 27 28 29 30 31 32 33 34 35 36 37 38 39 40 41 42 43 44 45 46 47 48 49 50
000
ASUS43 KMPX 200510
RWRMN
WEATHER ROUNDUP FOR MINNESOTA
NATIONAL WEATHER SERVICE TWIN CITIES/CHANHASSEN MN
1100 PM CST SUN FEB 19 2017


NOTE: "FAIR" INDICATES FEW OR NO CLOUDS BELOW 12,000 FEET WITH NO
SIGNIFICANT WEATHER AND/OR OBSTRUCTIONS TO VISIBILITY. N/A MEANS
CURRENT SKY AND/OR WEATHER CONDITIONS ARE NOT AVAILABLE.

MNZ060>063-068>070-200600-
   Twin Cities Metro

CITY           SKY/WX    TMP DP  RH WIND       PRES   REMARKS
TWIN CITIES    CLOUDY    50  38  63 SE13      29.87F
ST PAUL        CLOUDY    50  39  66 SE14      29.88F
CRYSTAL        CLOUDY    65  37  35 SE14G22   29.84F
BLAINE         CLOUDY    54  39  58 SE18G26   29.85F
LAKEVILLE      CLOUDY    48  41  76 SE8       29.87F
EDEN PRAIRIE   CLOUDY    52  40  63 SE15      29.84F
SOUTH ST PAUL  CLOUDY    51  37  60 SE8       29.88F
LAKE ELMO      FAIR      54  37  54 SE12      29.89F
$$
MNZ001>005-007-008-013>017-022>024-027-028-200600-
   Northwest Minnesota

CITY           SKY/WX    TMP DP  RH WIND       PRES   REMARKS
BEMIDJI        CLOUDY    41  33  73 SE13      29.75F
HALLOCK        CLOUDY    43  36  75 SE20      29.61F
ROSEAU         CLOUDY    43  36  75 SE14      29.70F
WARROAD        CLOUDY    43  34  70 SE15G21   29.73S
THIEF RVR FALL PTCLDY    41  36  82 SE16      29.67F
CROOKSTON      PTCLDY    43  41  93 SE16      29.64S
FOSSTON        CLOUDY    45  37  76 SE14      29.69S
DETROIT LAKES  PTCLDY    45  41  87 SE13      29.71S
MOORHEAD       PTCLDY    52  46  82 SE21G28   29.64S
PARK RAPIDS    CLOUDY    47  37  68 SE17G24   29.74F
MAHNOMEN       FAIR      47  42  81 SE14G25   29.67F
$$
MNZ006-009>011-018-025>026-200600-
   North Central Minnesota

CITY           SKY/WX    TMP DP  RH WIND       PRES   REMARKS
BAUDETTE       PTCLDY    42  30  62 SE13      29.76F
FLAG ISLAND    CLOUDY    41  30  65 SE13G22   29.74F
INTL FALLS     CLOUDY    40  28  62 SE12      29.86S
WASKISH        PTCLDY    45  34  65 SE14G35   29.78F
BIG FORK       CLOUDY    41  30  65 SE10G20   29.84F
LONGVILLE      CLOUDY    41  32  70 E8        29.81F
GRAND RAPIDS   CLOUDY    39  30  70 SE12G17   29.87F
CRANE LAKE     PTCLDY    36  28  75 CALM      29.95R
ORR            PTCLDY    37  27  65 CALM      29.87F
COOK           CLOUDY    39  28  65 SE5       29.91S
WALKER         FAIR      42  34  72 E6        29.78F
$$
MNZ012-019>021-037-200600-
   Northeast Minnesota

CITY           SKY/WX    TMP DP  RH WIND       PRES   REMARKS
DULUTH         PTCLDY    37  30  75 E15       29.93F
ELY            CLOUDY    36  28  75 SE9       29.95S
HIBBING        CLOUDY    36  29  75 SE7       29.90S
EVELETH        CLOUDY    37  26  63 E5        29.92F
DULUTH HARBOR  MOCLDY    36  34  93 NE18      29.98F
TWO HARBORS    CLOUDY    39  32  75 NE8       29.97S
GRAND MARAIS     N/A     38  29  70 NE12G23   30.07S
G MARAIS ARPRT CLOUDY    34  25  69 E8        30.04S WCI  27
$$
MNZ029>031-032-039>041-046>048-054>057-064-200600-
   West Central Minnesota

CITY           SKY/WX    TMP DP  RH WIND       PRES   REMARKS
FERGUS FALLS   PTCLDY    52  46  82 SE18G25   29.72S
WHEATON        CLOUDY    50  46  87 SE18      29.66F
MORRIS         CLOUDY    48  48 100 SE16      29.69F
ALEXANDRIA     CLOUDY    47  45  93 SE12      29.75S
ELBOW LAKE     FAIR      52  48  86 E23G29    29.69F
WADENA         CLOUDY    45  39  81 SE13      29.74F
GLENWOOD       MOCLDY    52  46  82 SE16      29.75F
APPLETON       CLOUDY    55  46  71 S12       29.71S
BENSON         CLOUDY    54  45  71 S10       29.74S
ORTONVILLE     CLOUDY    48  46  93 SE13      29.67F
WILLMAR        FAIR      52  48  87 SE13      29.77S
$$
MNZ033>034-036-042>043-049>051-058-059-200600-
   Central Minnesota

CITY           SKY/WX    TMP DP  RH WIND       PRES   REMARKS
ST CLOUD       CLOUDY    49  41  74 SE12      29.80F
SAUK CENTRE    FAIR      48  44  85 SE12      29.77F
PAYNESVILLE    CLOUDY    51  44  79 SE12      29.78F
AITKIN         CLOUDY    43  30  61 E7        29.84S
PINE RIVER     CLOUDY    45  37  76 SE8       29.84S
BRAINERD       CLOUDY    48  38  68 SE10G18   29.81F
STAPLES        PTCLDY    46  39  76 SE10      29.78S
LONG PRAIRIE   FAIR      45  43  93 E9        29.78S
LITTLE FALLS   PTCLDY    45  37  76 E8        29.81F
LITCHFIELD     CLOUDY    54  46  76 SE10G16   29.79S
BUFFALO        CLOUDY    52  41  66 SE8       29.82F
MAPLE LAKE     CLOUDY    52  44  74 SE10G18   29.82S
HUTCHINSON     CLOUDY    51  46  83 SE12      29.81S
$$
MNZ037-044-045-052-053-200600-
   East Central Minnesota

CITY           SKY/WX    TMP DP  RH WIND       PRES   REMARKS
PRINCETON      MOCLDY    54  39  58 SE12G17   29.82F
MORA           PTCLDY    45  34  65 E6        29.87S
CAMBRIDGE      CLOUDY    52  37  58 SE8       29.82F
RUSH CITY      PTCLDY    50  36  57 SE14      29.86F
MOOSE LAKE     CLOUDY    34  32  93 NE5       29.89F WCI  30
HINCKLEY       FAIR      46  34  61 E7        29.87F
CLOQUET        PTCLDY    36  30  80 E8        29.92F
MCGREGOR       CLOUDY    36  32  87 E9        29.88F
$$
MNZ071>073-080-081-089-090-097-098-200600-
   Southwest Minnesota

CITY           SKY/WX    TMP DP  RH WIND       PRES   REMARKS
MONTEVIDEO     CLOUDY    55  48  76 S16G22    29.74S
GRANITE FALLS  CLOUDY    54  49  83 SE14      29.76S
CANBY          CLOUDY    53  48  82 E7        29.71R
MARSHALL       CLOUDY    53  47  79 SE16      29.74R
REDWOOD FALLS  MOCLDY    52  46  80 SE16      29.77S
OLIVIA         CLOUDY    52  46  82 SE13      29.77R
PIPESTONE      CLOUDY    54  46  76 S16       29.74S
WINDOM         CLOUDY    54  46  76 SE15      29.79S
WORTHINGTON    MOCLDY    53  47  79 S21G26    29.78R
JACKSON        CLOUDY    52  45  76 S16G23    29.81S
TRACY          CLOUDY    54  48  82 S13G22    29.75R
SLAYTON        CLOUDY    50  47  89 S13       29.77R
$$
MNZ065>067-074>077-082>085-091>093-200600-
   South Central Minnesota

CITY           SKY/WX    TMP DP  RH WIND       PRES   REMARKS
MANKATO          N/A     50  44  80 SE16      29.83F
NEW ULM        CLOUDY    52  45  76 SE14      29.80S
ST JAMES       PTCLDY    52  46  82 SE13      29.82R
FAIRMONT       CLOUDY    52  46  80 SE14      29.83S
GLENCOE        CLOUDY    52  47  83 SE12      29.80F
FARIBAULT      CLOUDY    52  43  71 SE18      29.87F
OWATONNA       CLOUDY    50  41  71 SE13      29.88F
WASECA         CLOUDY    46  41  81 SE14      29.88S
ALBERT LEA     CLOUDY    48  43  81 SE12      29.89S
$$
MNZ078>079-086>088-094>096-200600-
   Southeast Minnesota

CITY           SKY/WX    TMP DP  RH WIND       PRES   REMARKS
ROCHESTER      CLOUDY    47  39  74 SE15      29.93S
RED WING       CLOUDY    52  36  54 SE10G16   29.91S
STANTON        CLOUDY    55  41  60 SE15G24   29.86F
DODGE CENTER   CLOUDY    45  39  81 SE14      29.91S
WINONA         CLOUDY    48  37  66 CALM      29.97R
AUSTIN         CLOUDY    48  41  76 SE8       29.91S
PRESTON        CLOUDY    48  37  65 SE8       29.94F
$$
ABBREVIATIONS USED IN REMARKS
   TC - TEMPERATURES IN CELSIUS
  WCI - WIND CHILL INDEX
   HX - HEAT INDEX
  VSB - VISIBILITY
$$




USA.gov is the U.S. government's official web portal to all federal, state and local government web resources and services.